GOES 18

Last updated on Thu Sep 10 2026 00:02:39 GMT+0000 (Coordinated Universal Time)

1 51850U 22021A 26252.55844818 .00000075 00000+0 00000+0 0 9996 2 51850 0.0449 314.3999 0000605 280.5223 177.7252 1.00272079 7432
UTC large
Height (km)
Speed (km/s)
/
Latitude / Longitude
Inclination (degrees)
Orbital Period (minutes)
Azimuth
Elevation
Range (km)
Doppler Factor

Next 0 passes for location: London (51.5072 / 0.1276)

No passes found over London.
GOES 18